Theta_e
285 286 287 289 291 294 296 298 297 297 308 315 316 321 322 323 322 321 326 318 321 324 325 326 324 324 324 325 325 325 325 325 326 326 325 325 325 325
284 284 285 287 289 291 293 296 300 299 298 312 317 320 322 323 321 323 325 314 318 321 322 322 321 321 322 322 322 322 323 324 325 326 327 326 326 325
283 283 284 286 287 289 291 292 294 296 294 301 316 319 320 322 323 323 322 323 321 317 321 321 320 320 320 320 320 321 321 323 324 326 327 327 327 326
281 282 283 285 285 287 288 289 291 295 298 297 303 311 317 321 322 321 323 325 325 317 318 319 320 319 319 319 319 318 318 319 320 322 324 325 325 325
281 281 282 283 283 284 286 287 289 292 294 295 296 301 314 319 320 321 321 322 323 316 316 317 318 318 318 318 317 317 316 316 316 317 318 320 322 323
281 281 282 283 282 283 284 286 288 288 290 292 296 297 300 318 318 317 317 320 319 321 316 317 317 317 317 317 316 314 313 313 315 316 316 315 316 318
281 283 283 284 286 286 285 284 285 286 287 289 291 295 299 307 314 317 317 317 318 320 320 318 318 318 318 315 315 310 311 313 314 315 315 315 314 315
281 282 283 285 285 287 288 289 288 286 285 286 287 290 296 299 311 316 316 314 311 319 317 317 318 318 319 319 316 314 311 313 313 313 314 314 313 313
281 281 282 284 285 285 287 288 288 290 291 288 286 287 289 295 300 308 315 315 314 316 317 314 317 316 319 319 313 312 312 311 311 312 311 311 312 311
281 281 281 281 283 284 284 284 285 286 287 288 289 290 291 293 294 297 300 315 317 317 317 311 315 314 317 318 312 311 312 311 310 310 310 310 310 310
280 281 281 281 284 286 283 283 284 285 289 291 292 293 295 297 297 295 293 296 310 313 315 314 313 312 313 314 315 309 310 310 310 309 310 309 309 309
281 281 284 283 285 286 283 283 282 283 286 287 287 289 292 293 295 297 295 292 297 309 311 312 310 307 298 310 313 314 311 309 309 309 309 308 308 310
279 280 281 284 285 285 286 284 284 285 286 286 287 287 288 290 292 296 298 296 294 305 309 313 308 299 295 294 305 310 312 312 310 309 308 307 306 308
279 279 280 283 284 285 285 286 287 287 285 285 286 285 286 287 290 294 301 300 300 300 311 313 294 306 302 288 293 292 306 311 309 309 308 308 306 306
280 282 285 284 284 284 285 285 286 284 283 282 283 285 286 288 290 292 296 302 301 303 311 313 307 308 306 302 293 291 293 294 305 305 305 305 304 305
282 280 282 283 284 282 282 283 282 282 282 282 282 284 286 287 287 289 293 301 300 301 293 310 311 308 305 306 298 290 291 291 297 300 300 299 300 302
281 279 277 277 276 277 278 279 280 280 280 282 282 282 284 286 285 288 290 294 299 299 296 288 303 302 301 299 293 295 291 288 296 296 295 290 289 294
277 274 273 274 274 275 276 276 278 280 280 280 280 282 283 284 285 286 288 290 298 301 300 294 288 289 287 288 292 294 292 291 292 292 293 291 285 286
272 272 272 273 273 275 276 277 277 278 280 280 280 281 282 284 285 285 286 288 293 301 300 293 295 296 293 294 286 289 294 288 290 290 291 287 289 286
271 271 271 272 274 275 276 277 278 279 279 279 280 281 282 283 284 285 286 287 292 299 298 293 295 297 296 296 287 286 288 290 291 289 284 284 285 290
270 271 272 272 275 276 276 277 278 278 280 280 280 281 283 284 284 286 286 289 294 297 295 293 297 301 289 288 287 282 284 290 292 289 284 284 282 282
270 270 271 274 276 276 276 277 278 278 281 281 281 282 284 285 285 286 287 287 290 296 295 294 292 290 290 293 291 281 282 285 288 289 289 285 284 279
270 271 271 275 276 276 276 277 278 278 282 282 283 283 284 285 286 286 287 289 293 296 294 289 289 291 293 291 285 282 281 282 283 282 283 287 287 286
Wind_Speed
12 12 11 10 10 10 10 9 9 9 10 8 8 12 12 12 14 13 17 24 29 30 29 28 24 23 23 25 23 22 24 24 24 23 23 21 22 22
11 14 13 10 11 9 10 10 10 10 10 11 10 10 14 12 13 13 16 19 27 29 30 27 25 22 24 25 24 22 21 22 23 24 24 24 24 24
14 14 15 14 11 10 9 9 11 10 11 13 11 5 5 13 12 12 12 14 14 27 31 30 27 25 24 25 24 24 23 22 22 23 25 25 24 24
17 16 16 12 16 13 10 12 12 12 11 14 13 12 10 11 13 13 13 12 14 21 27 29 30 30 27 24 27 27 25 25 23 23 24 24 25 25
18 17 16 16 16 13 13 12 11 11 11 11 13 12 14 12 11 12 13 14 12 16 27 28 29 29 30 28 28 28 27 25 24 22 22 21 22 23
18 18 17 17 17 16 14 14 13 12 12 12 11 13 13 14 13 15 12 11 12 10 14 19 25 28 29 30 28 26 25 24 26 25 25 22 21 20
19 18 17 20 28 24 14 14 14 13 11 11 11 11 13 14 16 14 14 12 13 12 12 12 12 14 17 24 23 23 25 27 28 28 27 25 23 22
18 19 18 25 24 31 32 33 26 16 17 13 13 14 15 14 13 15 12 11 9 12 14 12 11 13 13 14 26 29 28 30 29 28 27 25 24 23
17 17 17 14 23 18 24 31 31 33 32 20 20 19 19 16 14 18 17 15 12 10 15 12 11 14 12 13 24 28 28 29 30 28 27 27 26 24
18 18 19 20 18 20 19 20 20 19 21 17 21 21 21 20 18 17 18 16 13 10 16 12 11 12 11 12 20 26 29 30 28 27 28 28 27 27
16 18 18 20 27 31 22 22 21 20 21 31 33 32 32 30 28 14 16 13 14 13 15 13 10 11 10 12 12 22 25 28 28 28 29 28 26 26
15 17 27 26 33 35 24 20 19 20 17 19 19 23 29 26 33 23 14 15 16 10 8 13 10 8 3 8 11 11 12 24 26 27 28 27 26 12
13 13 12 28 34 35 35 20 20 19 21 20 18 15 16 18 15 17 19 18 16 15 8 14 10 5 3 4 8 11 11 11 13 14 24 25 24 21
14 14 18 34 35 36 29 32 37 33 16 16 16 17 17 16 16 17 19 19 18 23 9 20 6 11 10 2 4 2 8 10 10 12 12 16 23 26
17 25 35 37 38 31 35 36 38 19 16 16 18 16 17 16 16 16 19 21 22 23 18 18 12 13 11 10 6 4 5 4 9 9 9 10 11 10
19 18 24 29 33 29 27 24 18 18 18 17 18 18 15 14 15 15 14 14 14 15 5 19 20 15 13 13 9 6 5 8 8 8 7 5 6 8
25 13 12 12 14 14 14 17 17 17 19 19 19 18 18 15 17 15 16 14 15 16 12 3 11 10 7 11 7 8 8 3 8 8 7 5 2 6
14 12 13 14 15 16 16 16 17 22 19 19 20 19 19 18 17 16 16 17 17 17 16 10 5 5 4 3 2 9 6 7 5 10 6 7 3 1
11 13 13 15 16 16 17 17 18 18 19 18 20 20 20 19 23 17 17 17 19 16 12 12 14 12 14 15 3 3 10 6 9 8 8 3 7 6
12 14 15 16 17 17 16 17 17 16 19 22 22 21 20 20 18 18 18 19 20 16 15 13 15 17 18 18 8 4 3 11 10 11 6 6 9 15
15 16 16 17 16 16 16 16 18 16 18 18 20 20 20 20 19 18 18 27 26 16 17 17 20 24 6 9 6 3 1 5 9 13 12 9 8 5
15 16 17 17 17 17 16 16 15 14 15 16 18 19 19 18 19 19 18 18 20 15 12 11 11 11 8 11 10 8 5 6 13 16 9 5 13 13
17 17 18 17 17 17 17 16 14 12 14 16 16 18 18 15 18 20 19 17 18 18 11 9 10 10 10 7 12 10 13 15 10 11 7 17 19 22
Wind_Direction
284 283 277 275 272 272 269 262 257 279 281 228 227 224 217 214 208 193 199 197 199 201 205 208 206 202 202 203 210 215 204 206 209 205 205 207 213 220
287 284 282 281 278 275 278 281 267 270 270 291 231 210 214 214 200 192 198 186 200 202 203 205 207 200 198 201 204 210 205 208 208 207 208 209 212 217
285 286 284 288 283 276 271 267 266 258 262 273 290 228 218 230 213 199 191 193 198 206 203 203 205 203 197 200 203 207 205 207 210 209 212 213 213 218
287 285 283 284 281 280 276 271 272 279 275 273 265 285 228 225 222 206 204 199 201 204 209 209 207 207 204 200 206 206 206 207 209 209 213 214 214 216
281 280 282 281 280 278 276 276 274 277 277 272 279 277 273 210 222 220 211 212 211 198 203 207 209 208 208 205 207 204 204 207 203 203 210 212 215 217
274 272 270 270 273 279 279 280 277 274 278 279 266 267 269 227 212 219 208 207 209 205 201 205 211 213 212 212 210 205 203 203 207 208 213 212 209 211
273 271 267 264 266 265 265 263 265 270 273 277 266 263 254 278 213 208 210 204 206 202 206 204 204 210 214 218 214 208 208 209 210 211 213 213 209 212
273 273 269 269 271 273 272 269 262 256 259 262 265 271 264 245 275 206 198 204 195 202 202 210 197 209 208 208 213 212 211 214 215 213 214 212 210 208
273 272 275 269 273 271 272 272 268 263 256 258 258 253 265 270 270 283 199 206 205 187 193 210 193 216 206 208 206 208 208 211 216 214 213 211 211 210
272 273 270 272 265 265 265 262 257 252 251 253 255 258 255 263 260 276 292 242 217 198 189 208 193 214 211 213 206 207 208 213 213 212 216 216 211 210
268 267 266 266 269 268 269 267 263 258 253 250 253 259 261 257 251 258 261 299 228 209 196 188 192 201 198 208 208 205 207 210 211 208 216 216 213 212
273 268 269 270 272 274 270 261 259 260 258 254 251 254 257 258 262 251 254 247 268 210 184 194 175 163 193 214 210 211 210 214 209 212 214 212 212 210
276 273 269 273 275 274 271 265 260 263 263 260 255 249 246 250 243 246 229 230 233 260 181 186 184 167 165 148 206 205 200 208 210 213 209 202 201 200
290 284 278 279 277 273 271 270 268 265 260 256 249 243 244 243 243 238 236 224 224 233 214 187 174 188 190 140 186 192 209 206 198 202 201 202 202 202
285 280 285 288 284 280 275 272 267 259 252 248 248 248 235 241 250 250 248 225 222 225 234 193 187 187 191 204 181 193 153 212 186 183 183 187 183 192
292 288 284 285 287 281 277 264 254 252 244 242 243 243 245 231 236 241 246 238 213 220 239 206 194 183 193 208 179 166 176 174 180 175 174 178 177 190
309 300 293 290 285 277 266 258 250 246 240 242 235 238 233 234 229 229 239 250 220 208 205 237 202 174 192 174 174 180 170 164 181 165 154 156 186 182
313 301 294 287 281 276 271 266 254 250 236 234 233 231 232 227 225 224 231 228 241 209 204 181 147 124 70 348 23 171 163 160 166 167 153 168 155 281
303 295 288 286 281 275 270 265 259 245 238 236 231 227 226 222 222 217 218 230 244 211 189 175 178 182 187 209 164 298 173 155 151 165 171 122 173 165
301 295 294 292 283 283 276 273 265 242 240 230 224 219 219 216 213 211 214 223 227 219 194 175 185 191 195 198 164 171 280 157 163 164 137 88 82 96
305 301 298 293 293 291 286 277 271 255 243 219 215 214 214 211 211 208 212 218 221 218 200 187 196 189 101 100 130 136 84 143 158 161 145 129 136 125
305 303 304 295 304 299 295 286 278 274 229 211 209 209 212 206 204 204 210 214 218 218 198 182 151 150 161 176 170 144 128 104 98 129 103 102 166 163
311 307 305 306 310 308 306 296 291 275 240 212 208 203 206 204 195 204 213 217 209 214 180 152 153 164 180 176 141 149 138 132 135 119 89 105 105 107